User: anonymous   Login
Location: Unspecified
(0.0000°N, 0.0000°E)
Time: 06:09:24
(UTC+00:00)
Language:

UFO 5 - Orbit

View from above orbital plane
View from above orbital plane
View from above satellite
View from above satellite

Ground track
Ground track

The orbit data is extracted from the following two-line orbital elements,

1 23589U 95027A   17108.57110491 0.00000000  00000-0  00000-0 0    08
2 23589   9.9754  27.8707 0002040 254.9338 105.0557  0.98750752    00
Epoch (UTC): 18 April 2017 13:42:23
Eccentricity: 0.0002040
inclination: 9.9754°
perigee height: 36209 km
apogee height: 36227 km
right ascension of ascending node: 27.8707°
argument of perigee: 254.9338°
revolutions per day: 0.98750752
mean anomaly at epoch: 105.0557°
orbit number at epoch: 0

The dashed part of the orbit path shows where the satellite is in the earth's shadow,  

DLR